Date String (YYYY-MM-DD hh:mm:ss) UTC,Instrument flags,Ambient pressure (hPa),Sample flow (lpm),Bypass flow (lpm),Sample temperature (°C),Ambient temperature (°C),ASC tube jacket temperature (°C),LED temperature (°C),Box temperature (°C),Sample RH (%),Span deviation,Mass concentration (μg/m³),Mass concentration (μg/m³),Mass concentration (μg/m³)
DateTimeUTC,F1_M11,P_M11,Q1_M11,Q2_M11,T1_M11,T2_M11,T3_M11,T4_M11,T5_M11,U1_M11,ZSPAN_M11,X0_M11,X2_M11,X1_M11
2022-09-09 13:00:00,,0827.1,5.00,0.00,30.5,29.0,00.0,39.3,32.2,22.4,0001.6,0024.71,0013.13,0010.56
2022-09-09 13:01:00,,0827.2,5.00,0.00,30.5,29.0,00.0,39.3,32.2,22.4,0001.8,0024.63,0012.96,0010.47
2022-09-09 13:02:00,,0827.2,5.00,0.00,30.5,29.0,00.0,39.3,32.2,22.5,0002.1,0023.85,0012.75,0010.38
2022-09-09 13:03:00,,0827.2,5.00,0.00,30.5,29.0,00.0,39.3,32.2,22.6,0002.3,0024.02,0012.48,0010.29
2022-09-09 13:04:00,,0827.2,5.00,0.00,30.5,29.0,00.0,39.3,32.2,22.6,0002.4,0023.13,0012.25,0010.23
2022-09-09 13:05:00,,0827.2,5.00,0.00,30.5,29.0,00.0,39.3,32.2,22.6,0002.4,0022.11,0012.11,0010.20
2022-09-09 13:06:00,,0827.2,5.00,0.00,30.5,29.0,00.0,39.3,32.2,22.7,0002.3,0021.40,0011.98,0010.19
2022-09-09 13:07:00,,0827.2,4.99,0.00,30.5,29.0,00.0,39.3,32.2,22.7,0002.2,0021.66,0011.98,0010.21
2022-09-09 13:08:00,,0827.3,4.99,0.00,30.5,29.0,00.0,39.3,32.2,23.0,0002.5,0021.69,0011.99,0010.25
2022-09-09 13:09:00,,0827.2,5.00,0.00,30.4,29.0,00.0,39.3,32.2,24.2,0002.5,0021.59,0011.99,0010.30
2022-09-09 13:10:00,,0827.2,5.01,0.00,30.4,29.0,00.0,39.3,32.2,23.5,0002.5,0021.59,0011.97,0010.35
2022-09-09 13:11:00,,0827.2,5.00,0.00,30.4,29.0,00.0,39.3,32.2,23.0,0002.4,0020.74,0011.98,0010.39
2022-09-09 13:12:00,,0827.2,5.00,0.00,30.4,29.0,00.0,39.3,32.2,22.9,0002.4,0020.00,0012.05,0010.44
2022-09-09 13:13:00,,0827.4,5.00,0.00,30.4,29.0,00.0,39.3,32.2,22.9,0002.8,0020.09,0012.16,0010.48
2022-09-09 13:14:00,,0827.4,5.00,0.00,30.4,29.0,00.0,39.3,32.2,22.9,0002.6,0018.67,0012.19,0010.52
2022-09-09 13:15:00,,0827.3,5.00,0.00,30.4,28.9,00.0,39.3,32.2,22.9,0002.7,0018.92,0012.23,0010.57
2022-09-09 13:16:00,,0827.3,5.00,0.00,30.4,28.9,00.0,39.3,32.2,23.0,0003.0,0019.48,0012.32,0010.62
2022-09-09 13:17:00,,0827.4,5.00,0.00,30.4,29.0,00.0,39.3,32.2,23.0,0002.8,0019.63,0012.34,0010.65
2022-09-09 13:18:00,,0827.4,4.99,0.00,30.4,29.0,00.0,39.3,32.2,23.0,0003.0,0019.76,0012.35,0010.68
2022-09-09 13:19:00,,0827.4,5.00,0.00,30.4,28.9,00.0,39.3,32.2,23.0,0002.7,0020.61,0012.36,0010.71
2022-09-09 13:20:00,,0827.4,5.00,0.00,30.4,28.9,00.0,39.3,32.2,23.0,0002.5,0021.03,0012.38,0010.74
2022-09-09 13:21:00,,0827.4,5.00,0.00,30.4,28.9,00.0,39.3,32.2,23.0,0002.2,0021.38,0012.46,0010.79
2022-09-09 13:22:00,,0827.4,5.01,0.00,30.4,29.0,00.0,39.3,32.1,23.1,0002.2,0021.22,0012.47,0010.81
2022-09-09 13:23:00,,0827.4,5.00,0.00,30.4,29.0,00.0,39.3,32.1,23.1,0002.3,0021.11,0012.37,0010.82
2022-09-09 13:24:00,,0827.4,5.00,0.00,30.4,28.9,00.0,39.2,32.2,23.1,0002.3,0021.30,0012.28,0010.82
2022-09-09 13:25:00,,0827.4,5.00,0.00,30.4,28.9,00.0,39.2,32.2,23.1,0002.5,0021.57,0012.33,0010.86
2022-09-09 13:26:00,,0827.4,5.00,0.00,30.4,28.9,00.0,39.2,32.2,23.2,0002.5,0021.46,0012.39,0010.88
2022-09-09 13:27:00,,0827.5,5.00,0.00,30.4,28.9,00.0,39.2,32.2,23.2,0002.3,0021.23,0012.38,0010.90
2022-09-09 13:28:00,,0827.5,5.00,0.00,30.4,28.9,00.0,39.2,32.2,23.3,0002.6,0021.46,0012.38,0010.92
2022-09-09 13:29:00,,0827.5,5.00,0.00,30.4,28.9,00.0,39.2,32.2,23.2,0002.8,0021.54,0012.44,0010.97
2022-09-09 13:30:00,,0827.5,5.00,0.00,30.4,29.0,00.0,39.2,32.2,23.2,0003.2,0021.56,0012.55,0011.03
2022-09-09 13:31:00,,0827.5,5.00,0.00,30.4,29.0,00.0,39.2,32.1,23.3,0003.5,0021.39,0012.66,0011.09
2022-09-09 13:32:00,,0827.5,5.00,0.00,30.4,29.0,00.0,39.2,32.1,23.3,0004.0,0021.25,0012.75,0011.13
2022-09-09 13:33:00,,0827.5,5.00,0.00,30.4,29.0,00.0,39.2,32.1,23.4,0004.4,0021.47,0012.86,0011.21
2022-09-09 13:34:00,,0827.5,5.00,0.00,30.4,29.0,00.0,39.2,32.2,23.5,0004.4,0021.44,0012.92,0011.27
2022-09-09 13:35:00,,0827.6,5.00,0.00,30.4,29.0,00.0,39.2,32.2,23.4,0003.7,0021.19,0013.03,0011.34
2022-09-09 13:36:00,,0827.6,5.00,0.00,30.4,29.0,00.0,39.2,32.2,23.5,0003.1,0021.10,0013.08,0011.38
2022-09-09 13:37:00,,0827.6,4.99,0.00,30.4,29.0,00.0,39.2,32.2,23.6,0003.2,0020.73,0013.09,0011.42
2022-09-09 13:38:00,,0827.6,5.00,0.00,30.4,29.0,00.0,39.2,32.2,23.7,0003.1,0021.26,0013.16,0011.50
2022-09-09 13:39:00,,0827.6,4.99,0.00,30.4,29.0,00.0,39.2,32.2,23.5,0003.3,0021.46,0013.18,0011.55
2022-09-09 13:40:00,,0827.7,5.00,0.00,30.4,29.0,00.0,39.2,32.1,23.5,0003.3,0020.92,0013.19,0011.58
2022-09-09 13:41:00,,0827.7,4.99,0.00,30.4,29.0,00.0,39.2,32.1,23.4,0003.0,0020.25,0013.13,0011.59
2022-09-09 13:42:00,,0827.7,5.01,0.00,30.4,29.0,00.0,39.2,32.2,23.3,0003.0,0019.78,0013.04,0011.62
2022-09-09 13:43:00,,0827.7,5.00,0.00,30.4,29.0,00.0,39.2,32.1,23.3,0002.9,0019.56,0012.97,0011.64
2022-09-09 13:44:00,,0827.7,5.00,0.00,30.4,29.0,00.0,39.2,32.1,23.3,0002.5,0019.42,0012.97,0011.65
2022-09-09 13:45:00,,0827.7,5.01,0.00,30.4,29.0,00.0,39.2,32.1,23.4,0002.4,0019.45,0013.03,0011.67
2022-09-09 13:46:00,,0827.7,5.00,0.00,30.4,29.0,00.0,39.2,32.2,23.3,0002.8,0019.33,0013.03,0011.70
2022-09-09 13:47:00,,0827.7,5.00,0.00,30.4,29.0,00.0,39.2,32.2,23.3,0003.3,0019.25,0013.01,0011.73
2022-09-09 13:48:00,,0827.7,5.00,0.00,30.4,29.0,00.0,39.2,32.2,23.3,0003.5,0019.41,0013.05,0011.76
2022-09-09 13:49:00,,0827.7,5.00,0.00,30.4,29.0,00.0,39.2,32.2,23.3,0003.4,0018.70,0013.02,0011.77
2022-09-09 13:50:00,,0827.8,5.00,0.00,30.4,29.0,00.0,39.2,32.2,23.2,0003.3,0017.79,0013.05,0011.78
2022-09-09 13:51:00,,0827.7,5.00,0.00,30.4,29.0,00.0,39.2,32.2,23.2,0003.5,0017.83,0013.08,0011.80
2022-09-09 13:52:00,,0827.7,5.00,0.00,30.4,29.0,00.0,39.2,32.2,23.2,0003.7,0017.99,0013.14,0011.83
2022-09-09 13:53:00,,0827.7,5.00,0.00,30.4,29.0,00.0,39.2,32.2,23.2,0003.4,0018.17,0013.20,0011.83
2022-09-09 13:54:00,,0827.7,5.00,0.00,30.4,29.0,00.0,39.2,32.2,23.4,0003.3,0018.18,0013.23,0011.84
2022-09-09 13:55:00,,0827.8,5.00,0.00,30.4,29.0,00.0,39.2,32.2,23.4,0003.5,0018.07,0013.21,0011.86
2022-09-09 13:56:00,,0827.8,5.00,0.00,30.4,29.0,00.0,39.2,32.2,23.5,0003.5,0017.96,0013.18,0011.86
2022-09-09 13:57:00,,0827.8,5.00,0.00,30.4,29.0,00.0,39.2,32.2,23.6,0003.6,0017.99,0013.19,0011.88
2022-09-09 13:58:00,,0827.8,5.00,0.00,30.4,29.1,00.0,39.2,32.2,23.6,0003.6,0018.60,0013.18,0011.88
2022-09-09 13:59:00,,0827.8,5.00,0.00,30.4,29.1,00.0,39.2,32.2,23.6,0003.4,0018.97,0013.12,0011.86
